www.pogodaiklimat.ru
ПОГОДА в Манитовоке
Время
и дата
06:56 29.07
07:37 29.07
07:53 29.07
07:56 29.07
08:16 29.07
08:56 29.07
09:56 29.07
10:54 29.07
10:56 29.07
11:36 29.07
11:56 29.07
12:20 29.07
12:32 29.07
12:56 29.07
13:56 29.07
14:56 29.07
15:56 29.07
16:56 29.07
17:56 29.07
18:56 29.07
19:56 29.07
20:56 29.07
21:56 29.07
22:56 29.07
23:56 29.07
00:56 30.07
01:56 30.07
02:56 30.07
03:56 30.07
04:56 30.07
05:56 30.07
06:56 30.07
07:56 30.07
08:56 30.07
09:56 30.07
10:56 30.07
11:56 30.07
12:56 30.07
13:56 30.07
14:56 30.07
15:56 30.07
16:56 30.07
17:56 30.07
18:56 30.07
19:56 30.07
20:56 30.07
21:56 30.07
22:56 30.07
Ветер
(напр.,м/с)
Видим. Явления Облачность Т
(С)
Тd
(С)
f
(%)
Тe
(С)
Тes
(С)
Комфортность P
(гПа)
Po
(гПа)
Тmin
(С)
Tmax
(С)
R
(мм)
R24
(мм)
S
(см)
З 3 16 км 10/10 300 м +22.2 +22.2 100 +30 +30 очень
душно
1011.6 988.2
СЗ 3 16 км 5/5 360 м +23.0 +23.0 100 +32 +33 очень
душно
988.9
СЗ 3
{4}
16 км 8/8 420 м +24.0 +22.0 89 +31 +31 очень
душно
988.9
СЗ 3 16 км 8/8 420 м +23.9 +22.2 90 +31 +31 очень
душно
1012.0 988.9
С 2 16 км 5/5 420 м +24.0 +22.0 89 +31 +33 очень
душно
988.5
С 2 16 км ясно +25.0 +21.7 82 +32 +37 очень
душно
1012.3 989.2
С 2 16 км ясно +25.6 +21.1 76 +32 +40 очень
душно
1012.9 989.5
С 3 16 км 8/8 750 м +27.0 +22.0 74 +35 +36 очень
душно
989.9
С 2 16 км 8/8 750 м +26.1 +21.7 77 +34 +35 очень
душно
1013.2 989.9
С 3
{4}
16 км 8/8 810 м +26.0 +22.0 79 +34 +35 очень
душно
990.2
С 3 16 км 10/10 960 м +24.4 +21.1 82 +31 +31 очень
душно
1013.6 990.2 +21.7 +26.7
С 3 16 км 10/10 840 м +24.0 +21.0 83 +30 +30 очень
душно
990.5
С 3 16 км 10/10 930 м +24.0 +21.0 83 +30 +30 очень
душно
990.5
С 2 16 км 10/10 930 м +24.4 +20.6 79 +30 +30 очень
душно
1014.0 990.5
С 2 16 км 10/10 990 м +25.0 +20.6 77 +31 +31 очень
душно
1014.5 991.2
СВ 2
{4}
16 км 8/8 1050 м +25.6 +17.8 62 +30 +32 душно 1014.9 991.5
СВ 2 16 км ясно +25.0 +18.3 66 +29 +36 душно 1015.3 991.8
В 1 16 км ясно +24.4 +18.3 69 +29 +34 душно 1015.8 992.5
В 1 16 км ясно +22.8 +19.4 81 +29 +32 очень
душно
1016.4 992.8 +22.8 +25.6
СВ 2 16 км ясно +21.1 +17.8 81 +25 +25 комфорт 1016.9 993.5
СВ 1 16 км ясно +20.0 +17.8 87 +23 +23 комфорт 1017.8 994.2
С 2 16 км ясно +19.4 +17.2 87 +21 +21 комфорт 1018.4 994.8
С 2 16 км 8/8 1080 м +18.3 +15.0 81 +19 +19 1019.0 995.5
С 2 16 км ясно +17.2 +13.9 81 +17 +17 1019.4 995.8
С 2 16 км ясно +16.1 +13.3 83 +15 +15 1020.0 996.5 +16.1 +22.8
С 2 16 км ясно +15.6 +11.7 78 +14 +14 1020.2 996.8
С 2 16 км ясно +14.4 +12.2 87 +13 +13 1020.7 997.1
С 1 16 км ясно +13.9 +12.2 89 +13 +13 1021.0 997.5
С 1 16 км ясно +13.3 +11.7 90 +12 +12 1021.8 998.1
С 2 16 км ясно +13.3 +11.7 90 +12 +12 1021.7 998.1
С 1 16 км ясно +14.4 +12.2 87 +13 +14 1022.1 998.5 +12.8 +16.1
С 2 16 км ясно +16.1 +12.8 81 +15 +16 1022.6 998.8
С 3 16 км ясно +17.2 +12.2 72 +16 +18 1022.8 999.1
С 2 16 км ясно +17.8 +11.1 65 +17 +21 1022.9 999.1
С 2 16 км ясно +18.3 +11.1 63 +18 +26 1023.1 999.4
нст 1 16 км 2/2 1110 м +19.4 +11.1 59 +21 +31 комфорт 1022.9 999.1
штиль 0 16 км ясно +20.0 +10.6 55 +21 +45 комфорт 1022.3 998.5 +14.4 +20.0
ЮВ 3 16 км ясно +19.4 +11.1 59 +20 +27 1021.6 997.8
В 2 16 км ясно +19.4 +11.1 59 +20 +29 1021.3 997.5
В 2 16 км ясно +18.9 +11.7 63 +19 +27 1021.3 997.5
ЮВ 2 16 км ясно +18.3 +11.7 65 +18 +25 1021.2 997.1
ЮВ 1 16 км ясно +18.3 +11.1 63 +19 +24 1021.0 997.1
ЮВ 1 16 км ясно +18.3 +11.1 63 +19 +22 1020.6 996.8 +17.8 +20.6
Ю 1 16 км ясно +16.7 +12.2 75 +17 +18 1020.5 996.5
Ю 1 16 км ясно +16.7 +11.7 72 +17 +17 1020.4 996.5
штиль 0 16 км ясно +15.0 +12.2 83 +15 +15 1020.2 996.5
Ю 1 16 км ясно +15.0 +12.2 83 +15 +15 1019.7 995.8
Ю 1 16 км ясно +15.0 +11.7 81 +15 +15 1019.1 995.1
Местоположение метеостанции Manitowoc County Airport: широта 44.1333 долгота -87.6833 высота над уровнем моря 198 м.
В архиве по умолчанию представлена погода в Манитовоке за последние 1-2 суток. Обновление информации о фактической погоде в базе происходит ежечасно! Архивные данные за месяц целиком и за предыдущие месяцы Вы можете получить, выбрав интересующий диапазон дат из раскрывающегося списка и нажав кнопку "Ввод!".
Внимание! Архив погоды МЕТАР в базе сайта по станциям, не включенным в климатический монитор, хранится не более 60 дней. Нет смысла пытаться выбрать более раннюю дату.
*Определитесь, кто Вы:
Внимание! Время в таблицах - местное (без учета летнего времени). Для получения всемирного времени необходимо вычесть поправку, которая равна -6 ч.
Смотрите также архив погоды в соседних городах и на ближайших метеорологических станциях:
Партнеры нашего сайта:      
Пояснения к столбцам:
  • Ветер - указаны скорость ветра в м/с - средняя за 10 мин, порывы в срок и между сроками (в фигурных скобках) и направление, откуда дует ветер: С - северный,
  • СВ - северо-восточный, В - восточный, ЮВ - юго-восточный, Ю - южный, ЮЗ - юго-западный, З - западный, СЗ - северо-западный.
  • Видимость - горизонтальная дальность видимости в метрах или километрах. При видимости от 1 до 10 км при отсутствии осадков обычно наблюдается дымка, при ухудшении видимости до 1 км и менее - туман. В сухую погоду видимость может ухудшаться дымом, пылью или мглою.
  • Явления - указаны атмосферные явления, наблюдавшиеся в срок или в последний час перед сроком; фигурными скобками обозначены явления, наблюдавшиеся между сроками (за 1-3 часа до срока); квадратными скобками обозначены град или гололедные отложения с указанием их диаметра в мм.
  • Облачность - указаны через наклонную черту общая и нижняя облачность в баллах и высота нижней границы облаков в метрах; квадратными скобками обозначены формы облаков: Ci - перистые, Cs - перисто-слоистые, Cc - перисто-кучевые, Ac - высококучевые, As - высокослоистые, Sc - слоисто-кучевые, Ns - слоисто-дождевые, Cu - кучевые, Cb - кучево-дождевые. Подробнее классификацию облаков см. в Атласе облаков (PDF).
  • T - Температура воздуха - температура, измеренная на высоте 2 м над землей.
  • Td - Температура точки росы - температура, при понижении до которой содержащийся в воздухе водяной пар достигнет насыщения.
  • f - Относительная влажность воздуха - влажноcть воздуха, измеренная на высоте 2 м над землей.
  • Te - Эффективная температура - температура, которую ощущает одетый по сезону человек в тени. Характеристика душности погоды. При расчете учитывается влияние влажности воздуха и скорости ветра на теплоощущения человека.
  • Tes - Эффективная температура на солнце - температура, которую ощущает человек, с поправкой на солнечный нагрев. Характеристика знойности погоды. Зависит от высоты солнца над горизонтом, облачности и скорости ветра. Ночью, в пасмурную погоду, а также при ветре 12 м/с и более поправка равна нулю.
  • P - Атмосферное давление - приведенное к уровню моря атмосферное давление.
  • Po - Атмосферное давление - измеренное на уровне метеостанции атмосферное давление.
  • Tmin - Минимальная температура - минимум температуры воздуха на высоте 2 м над землей.
  • Tmax - Максимальная температура - максимум температуры воздуха на высоте 2 м над землей.
  • R - Количество осадков - Количество выпавших осадков за период времени, мм. При наведении курсора мыши на число - период времени, за который выпало указанное количество осадков.
  • R24 - Количество осадков - Количество выпавших осадков за 24 часа, мм.
  • S - Снежный покров - Высота снежного покрова, см. При наведении курсора мыши на число - состояние снежного покрова и степень покрытия местности в баллах.